owner,sensor,date,latitude,longitude,vertical_datum,direction_of_sea_water_velocity,sea_water_speed,upward_sea_water_velocity,qcFlag 
TABS,ioos:station:wmo:42051:1,2013-01-01T00:00:00Z,29.6350,-93.6417,2.0,258.6896731,25.1891564,-99999.0,'11111222,11111222,99999999' 
TABS,ioos:station:wmo:42051:1,2013-01-01T00:30:00Z,29.6350,-93.6417,2.0,261.3282574,20.95958015,-99999.0,'11111222,11111222,99999999' 
TABS,ioos:station:wmo:42051:1,2013-01-01T01:00:00Z,29.6350,-93.6417,2.0,263.6955298,22.76767226,-99999.0,'11111222,11111222,99999999' 
TABS,ioos:station:wmo:42051:1,2013-01-01T01:30:00Z,29.6350,-93.6417,2.0,260.6988126,19.24297794,-99999.0,'11111222,11111222,99999999' 
TABS,ioos:station:wmo:42051:1,2013-01-01T02:00:00Z,29.6350,-93.6417,2.0,253.8918081,26.16729256,-99999.0,'11111222,11111222,99999999' 
TABS,ioos:station:wmo:42051:1,2013-01-01T02:30:00Z,29.6350,-93.6417,2.0,272.5766976,19.80001263,-99999.0,'11111222,11111222,99999999' 
TABS,ioos:station:wmo:42051:1,2013-01-01T03:00:00Z,29.6350,-93.6417,2.0,261.8045558,17.46837714,-99999.0,'11111222,11111222,99999999' 
TABS,ioos:station:wmo:42051:1,2013-01-01T03:30:00Z,29.6350,-93.6417,2.0,251.3548001,17.26615186,-99999.0,'11111222,11111222,99999999' 
TABS,ioos:station:wmo:42051:1,2013-01-01T04:00:00Z,29.6350,-93.6417,2.0,265.6496601,21.6222848,-99999.0,'11111222,11111222,99999999' 
TABS,ioos:station:wmo:42051:1,2013-01-01T04:30:00Z,29.6350,-93.6417,2.0,265.721435,20.7778945,-99999.0,'11111222,11111222,99999999' 
TABS,ioos:station:wmo:42051:1,2013-01-01T05:00:00Z,29.6350,-93.6417,2.0,260.4307618,17.68607362,-99999.0,'11111222,11111222,99999999' 
TABS,ioos:station:wmo:42051:1,2013-01-01T05:30:00Z,29.6350,-93.6417,2.0,242.2141444,20.78673134,-99999.0,'11111222,11111222,99999999' 
TABS,ioos:station:wmo:42051:1,2013-01-01T06:00:00Z,29.6350,-93.6417,2.0,246.8052697,17.79858702,-99999.0,'11111222,11111222,99999999' 
TABS,ioos:station:wmo:42051:1,2013-01-01T06:30:00Z,29.6350,-93.6417,2.0,252.7661954,16.43797129,-99999.0,'11111222,11111222,99999999' 
TABS,ioos:station:wmo:42051:1,2013-01-01T07:00:00Z,29.6350,-93.6417,2.0,262.9643141,15.83925503,-99999.0,'11111222,11111222,99999999' 
TABS,ioos:station:wmo:42051:1,2013-01-01T07:30:00Z,29.6350,-93.6417,2.0,256.4347205,13.85652915,-99999.0,'11111222,11111222,99999999' 
TABS,ioos:station:wmo:42051:1,2013-01-01T08:00:00Z,29.6350,-93.6417,2.0,269.6544288,16.6003012,-99999.0,'11111222,11111222,99999999' 
TABS,ioos:station:wmo:42051:1,2013-01-01T08:30:00Z,29.6350,-93.6417,2.0,263.3191785,19.34131847,-99999.0,'11111222,11111222,99999999' 
TABS,ioos:station:wmo:42051:1,2013-01-01T09:00:00Z,29.6350,-93.6417,2.0,244.8159715,20.96252132,-99999.0,'11111222,11111222,99999999' 
TABS,ioos:station:wmo:42051:1,2013-01-01T09:30:00Z,29.6350,-93.6417,2.0,244.3410911,21.20057782,-99999.0,'11111222,11111222,99999999' 
TABS,ioos:station:wmo:42051:1,2013-01-01T10:00:00Z,29.6350,-93.6417,2.0,249.6653164,16.02890514,-99999.0,'11111222,11111222,99999999' 
TABS,ioos:station:wmo:42051:1,2013-01-01T10:30:00Z,29.6350,-93.6417,2.0,240.3234208,16.56237,-99999.0,'11111222,11111222,99999999' 
TABS,ioos:station:wmo:42051:1,2013-01-01T11:00:00Z,29.6350,-93.6417,2.0,238.9756947,13.05790948,-99999.0,'11111222,11111222,99999999' 
TABS,ioos:station:wmo:42051:1,2013-01-01T11:30:00Z,29.6350,-93.6417,2.0,240.7829544,9.956691217,-99999.0,'11133222,11111222,99999999' 
TABS,ioos:station:wmo:42051:1,2013-01-01T12:00:00Z,29.6350,-93.6417,2.0,249.7534799,9.304907307,-99999.0,'11133222,11111222,99999999' 
TABS,ioos:station:wmo:42051:1,2013-01-01T12:30:00Z,29.6350,-93.6417,2.0,208.2508357,5.471791297,-99999.0,'11133222,11111222,99999999' 
TABS,ioos:station:wmo:42051:1,2013-01-01T13:00:00Z,29.6350,-93.6417,2.0,175.0713273,7.216682063,-99999.0,'11133222,11111222,99999999' 
TABS,ioos:station:wmo:42051:1,2013-01-01T13:30:00Z,29.6350,-93.6417,2.0,185.2825295,15.85735476,-99999.0,'11111222,11111222,99999999' 
TABS,ioos:station:wmo:42051:1,2013-01-01T14:00:00Z,29.6350,-93.6417,2.0,215.669788,15.09130876,-99999.0,'11111222,11111222,99999999' 
TABS,ioos:station:wmo:42051:1,2013-01-01T14:30:00Z,29.6350,-93.6417,2.0,215.2100698,26.65718102,-99999.0,'11111222,11111222,99999999' 
TABS,ioos:station:wmo:42051:1,2013-01-01T15:00:00Z,29.6350,-93.6417,2.0,224.5581582,31.19847753,-99999.0,'11111222,11111222,99999999' 
TABS,ioos:station:wmo:42051:1,2013-01-01T15:30:00Z,29.6350,-93.6417,2.0,237.6589689,26.26401721,-99999.0,'11111222,11111222,99999999' 
TABS,ioos:station:wmo:42051:1,2013-01-01T16:00:00Z,29.6350,-93.6417,2.0,230.9024572,33.141038,-99999.0,'11111222,11111222,99999999' 
TABS,ioos:station:wmo:42051:1,2013-01-01T16:30:00Z,29.6350,-93.6417,2.0,227.9222892,34.94824745,-99999.0,'11111222,11111222,99999999' 
TABS,ioos:station:wmo:42051:1,2013-01-01T17:00:00Z,29.6350,-93.6417,2.0,227.0900222,32.18063082,-99999.0,'11111222,11111222,99999999' 
TABS,ioos:station:wmo:42051:1,2013-01-01T17:30:00Z,29.6350,-93.6417,2.0,230.5447487,32.63721189,-99999.0,'11111222,11111222,99999999' 
TABS,ioos:station:wmo:42051:1,2013-01-01T18:00:00Z,29.6350,-93.6417,2.0,237.188289,22.60669149,-99999.0,'11111222,11111222,99999999' 
TABS,ioos:station:wmo:42051:1,2013-01-01T18:30:00Z,29.6350,-93.6417,2.0,234.6566518,26.34535443,-99999.0,'11111222,11111222,99999999' 
TABS,ioos:station:wmo:42051:1,2013-01-01T19:00:00Z,29.6350,-93.6417,2.0,254.2281004,19.46270793,-99999.0,'11111222,11111222,99999999' 
TABS,ioos:station:wmo:42051:1,2013-01-01T19:30:00Z,29.6350,-93.6417,2.0,245.0052734,18.43659947,-99999.0,'11111222,11111222,99999999' 
TABS,ioos:station:wmo:42051:1,2013-01-01T20:00:00Z,29.6350,-93.6417,2.0,253.5479136,27.04735107,-99999.0,'11111222,11111222,99999999' 
TABS,ioos:station:wmo:42051:1,2013-01-01T20:30:00Z,29.6350,-93.6417,2.0,253.877981,26.79367836,-99999.0,'11111222,11111222,99999999' 
TABS,ioos:station:wmo:42051:1,2013-01-01T21:00:00Z,29.6350,-93.6417,2.0,256.8454642,27.72753325,-99999.0,'11111222,11111222,99999999' 
TABS,ioos:station:wmo:42051:1,2013-01-01T21:30:00Z,29.6350,-93.6417,2.0,261.2234672,24.70929582,-99999.0,'11111222,11111222,99999999' 
TABS,ioos:station:wmo:42051:1,2013-01-01T22:00:00Z,29.6350,-93.6417,2.0,257.1056067,26.03652243,-99999.0,'11111222,11111222,99999999' 
TABS,ioos:station:wmo:42051:1,2013-01-01T22:30:00Z,29.6350,-93.6417,2.0,250.0117522,20.53704945,-99999.0,'11111222,11111222,99999999' 
TABS,ioos:station:wmo:42051:1,2013-01-01T23:00:00Z,29.6350,-93.6417,2.0,243.1259989,12.45507929,-99999.0,'11111222,11111222,99999999' 
TABS,ioos:station:wmo:42051:1,2013-01-01T23:30:00Z,29.6350,-93.6417,2.0,244.1458356,13.69026296,-99999.0,'11111222,11111222,99999999' 
TABS,ioos:station:wmo:42051:1,2013-01-02T00:00:00Z,29.6350,-93.6417,2.0,237.4917348,11.96465628,-99999.0,'11111222,11111222,99999999' 
TABS,ioos:station:wmo:42051:1,2013-01-02T00:30:00Z,29.6350,-93.6417,2.0,220.4919241,13.67532084,-99999.0,'11111222,11111222,99999999' 
TABS,ioos:station:wmo:42051:1,2013-01-02T01:00:00Z,29.6350,-93.6417,2.0,225.6503911,13.07524761,-99999.0,'11111222,11111222,99999999' 
TABS,ioos:station:wmo:42051:1,2013-01-02T01:30:00Z,29.6350,-93.6417,2.0,226.3319011,15.81518258,-99999.0,'11111222,11111222,99999999' 
TABS,ioos:station:wmo:42051:1,2013-01-02T02:00:00Z,29.6350,-93.6417,2.0,234.160493,17.01075248,-99999.0,'11111222,11111222,99999999' 
TABS,ioos:station:wmo:42051:1,2013-01-02T02:30:00Z,29.6350,-93.6417,2.0,233.7304489,16.02488065,-99999.0,'11111222,11111222,99999999' 
TABS,ioos:station:wmo:42051:1,2013-01-02T03:00:00Z,29.6350,-93.6417,2.0,227.4409498,16.76657687,-99999.0,'11111222,11111222,99999999' 
TABS,ioos:station:wmo:42051:1,2013-01-02T03:30:00Z,29.6350,-93.6417,2.0,222.2665401,16.90494011,-99999.0,'11111222,11111222,99999999' 
TABS,ioos:station:wmo:42051:1,2013-01-02T04:00:00Z,29.6350,-93.6417,2.0,215.0875646,12.73415879,-99999.0,'11111222,11111222,99999999' 
TABS,ioos:station:wmo:42051:1,2013-01-02T04:30:00Z,29.6350,-93.6417,2.0,225.2810948,14.39686771,-99999.0,'11111222,11111222,99999999' 
TABS,ioos:station:wmo:42051:1,2013-01-02T05:00:00Z,29.6350,-93.6417,2.0,212.4563306,15.07469734,-99999.0,'11111222,11111222,99999999' 
TABS,ioos:station:wmo:42051:1,2013-01-02T05:30:00Z,29.6350,-93.6417,2.0,242.173772,7.926544014,-99999.0,'11133222,11111222,99999999' 
TABS,ioos:station:wmo:42051:1,2013-01-02T06:00:00Z,29.6350,-93.6417,2.0,202.3680123,10.51087056,-99999.0,'11111222,11111222,99999999' 
TABS,ioos:station:wmo:42051:1,2013-01-02T06:30:00Z,29.6350,-93.6417,2.0,244.2303117,2.57619875,-99999.0,'11133222,11111222,99999999' 
TABS,ioos:station:wmo:42051:1,2013-01-02T07:00:00Z,29.6350,-93.6417,2.0,231.4482615,7.429199149,-99999.0,'11133222,11111222,99999999' 
TABS,ioos:station:wmo:42051:1,2013-01-02T07:30:00Z,29.6350,-93.6417,2.0,268.2169342,7.393578295,-99999.0,'11133222,11111222,99999999' 
TABS,ioos:station:wmo:42051:1,2013-01-02T08:00:00Z,29.6350,-93.6417,2.0,354.1529687,3.337364229,-99999.0,'11133222,11111222,99999999' 
TABS,ioos:station:wmo:42051:1,2013-01-02T08:30:00Z,29.6350,-93.6417,2.0,233.5487411,6.5641755,-99999.0,'11133222,11111222,99999999' 
TABS,ioos:station:wmo:42051:1,2013-01-02T09:00:00Z,29.6350,-93.6417,2.0,280.0306108,2.985632261,-99999.0,'11133222,11111222,99999999' 
TABS,ioos:station:wmo:42051:1,2013-01-02T09:30:00Z,29.6350,-93.6417,2.0,302.6725738,5.464659184,-99999.0,'11133222,11111222,99999999' 
TABS,ioos:station:wmo:42051:1,2013-01-02T10:00:00Z,29.6350,-93.6417,2.0,274.118601,8.772650683,-99999.0,'11133222,11111222,99999999' 
TABS,ioos:station:wmo:42051:1,2013-01-02T10:30:00Z,29.6350,-93.6417,2.0,245.1172516,7.462740783,-99999.0,'11133222,11111222,99999999' 
TABS,ioos:station:wmo:42051:1,2013-01-02T11:00:00Z,29.6350,-93.6417,2.0,297.3327165,12.0221795,-99999.0,'11111222,11111222,99999999' 
TABS,ioos:station:wmo:42051:1,2013-01-02T11:30:00Z,29.6350,-93.6417,2.0,265.8129482,8.081565442,-99999.0,'11133222,11111222,99999999' 
TABS,ioos:station:wmo:42051:1,2013-01-02T12:00:00Z,29.6350,-93.6417,2.0,253.4733888,13.95655043,-99999.0,'11111222,11111222,99999999' 
TABS,ioos:station:wmo:42051:1,2013-01-02T12:30:00Z,29.6350,-93.6417,2.0,259.9103739,13.07214596,-99999.0,'11111222,11111222,99999999' 
TABS,ioos:station:wmo:42051:1,2013-01-02T13:00:00Z,29.6350,-93.6417,2.0,259.9182125,15.82432621,-99999.0,'11111222,11111222,99999999' 
TABS,ioos:station:wmo:42051:1,2013-01-02T13:30:00Z,29.6350,-93.6417,2.0,245.9336692,15.17944992,-99999.0,'11111222,11111222,99999999' 
TABS,ioos:station:wmo:42051:1,2013-01-02T14:00:00Z,29.6350,-93.6417,2.0,265.906778,11.34894268,-99999.0,'11111222,11111222,99999999' 
TABS,ioos:station:wmo:42051:1,2013-01-02T14:30:00Z,29.6350,-93.6417,2.0,265.4842716,11.30508735,-99999.0,'11111222,11111222,99999999' 
TABS,ioos:station:wmo:42051:1,2013-01-02T15:00:00Z,29.6350,-93.6417,2.0,283.9367264,8.345663545,-99999.0,'11133222,11111222,99999999' 
TABS,ioos:station:wmo:42051:1,2013-01-02T15:30:00Z,29.6350,-93.6417,2.0,219.8393234,10.77046424,-99999.0,'11111222,11111222,99999999' 
TABS,ioos:station:wmo:42051:1,2013-01-02T16:00:00Z,29.6350,-93.6417,2.0,200.7599444,9.197151733,-99999.0,'11133222,11111222,99999999' 
TABS,ioos:station:wmo:42051:1,2013-01-02T16:30:00Z,29.6350,-93.6417,2.0,309.2580458,2.544209111,-99999.0,'11133222,11111222,99999999' 
TABS,ioos:station:wmo:42051:1,2013-01-02T17:00:00Z,29.6350,-93.6417,2.0,289.654199,2.081249625,-99999.0,'11133222,11111222,99999999' 
TABS,ioos:station:wmo:42051:1,2013-01-02T17:30:00Z,29.6350,-93.6417,2.0,316.0565688,8.055315016,-99999.0,'11133222,11111222,99999999' 
TABS,ioos:station:wmo:42051:1,2013-01-02T18:00:00Z,29.6350,-93.6417,2.0,288.6476441,5.973583514,-99999.0,'11133222,11111222,99999999' 
TABS,ioos:station:wmo:42051:1,2013-01-02T18:30:00Z,29.6350,-93.6417,2.0,249.1714047,17.49316724,-99999.0,'11111222,11111222,99999999' 
TABS,ioos:station:wmo:42051:1,2013-01-02T19:00:00Z,29.6350,-93.6417,2.0,259.6598956,19.1103349,-99999.0,'11111222,11111222,99999999' 
TABS,ioos:station:wmo:42051:1,2013-01-02T19:30:00Z,29.6350,-93.6417,2.0,264.2445348,17.95047632,-99999.0,'11111222,11111222,99999999' 
TABS,ioos:station:wmo:42051:1,2013-01-02T20:00:00Z,29.6350,-93.6417,2.0,280.448214,17.20525501,-99999.0,'11111222,11111222,99999999' 
TABS,ioos:station:wmo:42051:1,2013-01-02T20:30:00Z,29.6350,-93.6417,2.0,294.2462929,17.24078885,-99999.0,'11111222,11111222,99999999' 
TABS,ioos:station:wmo:42051:1,2013-01-02T21:00:00Z,29.6350,-93.6417,2.0,269.3439082,18.3512016,-99999.0,'11111222,11111222,99999999' 
TABS,ioos:station:wmo:42051:1,2013-01-02T21:30:00Z,29.6350,-93.6417,2.0,296.1732244,14.37378169,-99999.0,'11111222,11111222,99999999' 
TABS,ioos:station:wmo:42051:1,2013-01-02T22:00:00Z,29.6350,-93.6417,2.0,265.8041247,11.89186697,-99999.0,'11111222,11111222,99999999' 
TABS,ioos:station:wmo:42051:1,2013-01-02T22:30:00Z,29.6350,-93.6417,2.0,269.0579209,15.21205443,-99999.0,'11111222,11111222,99999999' 
TABS,ioos:station:wmo:42051:1,2013-01-02T23:00:00Z,29.6350,-93.6417,2.0,280.1210465,20.03169489,-99999.0,'11111222,11111222,99999999' 
TABS,ioos:station:wmo:42051:1,2013-01-02T23:30:00Z,29.6350,-93.6417,2.0,270.747172,13.81117301,-99999.0,'11111222,11111222,99999999' 
TABS,ioos:station:wmo:42051:1,2013-01-03T00:00:00Z,29.6350,-93.6417,2.0,254.2753555,22.06576534,-99999.0,'11111222,11111222,99999999' 
TABS,ioos:station:wmo:42051:1,2013-01-03T00:30:00Z,29.6350,-93.6417,2.0,255.2730179,22.34400367,-99999.0,'11111222,11111222,99999999' 
TABS,ioos:station:wmo:42051:1,2013-01-03T01:00:00Z,29.6350,-93.6417,2.0,245.7625648,25.21235015,-99999.0,'11111222,11111222,99999999' 
TABS,ioos:station:wmo:42051:1,2013-01-03T01:30:00Z,29.6350,-93.6417,2.0,233.0860496,18.34800534,-99999.0,'11111222,11111222,99999999' 
TABS,ioos:station:wmo:42051:1,2013-01-03T02:00:00Z,29.6350,-93.6417,2.0,251.6335935,15.77345238,-99999.0,'11111222,11111222,99999999' 
TABS,ioos:station:wmo:42051:1,2013-01-03T02:30:00Z,29.6350,-93.6417,2.0,259.6207414,13.1552461,-99999.0,'11111222,11111222,99999999' 
TABS,ioos:station:wmo:42051:1,2013-01-03T03:00:00Z,29.6350,-93.6417,2.0,239.4745753,13.66369277,-99999.0,'11111222,11111222,99999999' 
TABS,ioos:station:wmo:42051:1,2013-01-03T03:30:00Z,29.6350,-93.6417,2.0,237.3436201,15.21513063,-99999.0,'11111222,11111222,99999999' 
TABS,ioos:station:wmo:42051:1,2013-01-03T04:00:00Z,29.6350,-93.6417,2.0,248.062009,17.18429516,-99999.0,'11111222,11111222,99999999' 
TABS,ioos:station:wmo:42051:1,2013-01-03T04:30:00Z,29.6350,-93.6417,2.0,237.2796198,13.59765053,-99999.0,'11111222,11111222,99999999' 
TABS,ioos:station:wmo:42051:1,2013-01-03T05:00:00Z,29.6350,-93.6417,2.0,284.636564,7.875563472,-99999.0,'11133222,11111222,99999999' 
TABS,ioos:station:wmo:42051:1,2013-01-03T05:30:00Z,29.6350,-93.6417,2.0,256.5126867,10.11905134,-99999.0,'11111222,11111222,99999999' 
TABS,ioos:station:wmo:42051:1,2013-01-03T06:00:00Z,29.6350,-93.6417,2.0,275.1724178,16.19594085,-99999.0,'11111222,11111222,99999999' 
TABS,ioos:station:wmo:42051:1,2013-01-03T06:30:00Z,29.6350,-93.6417,2.0,267.8609015,12.05839956,-99999.0,'11111222,11111222,99999999' 
TABS,ioos:station:wmo:42051:1,2013-01-03T07:00:00Z,29.6350,-93.6417,2.0,288.4591304,7.611602985,-99999.0,'11133222,11111222,99999999' 
TABS,ioos:station:wmo:42051:1,2013-01-03T07:30:00Z,29.6350,-93.6417,2.0,279.2144108,10.24215309,-99999.0,'11111222,11111222,99999999' 
TABS,ioos:station:wmo:42051:1,2013-01-03T08:00:00Z,29.6350,-93.6417,2.0,290.7045961,8.146091087,-99999.0,'11133222,11111222,99999999' 
TABS,ioos:station:wmo:42051:1,2013-01-03T08:30:00Z,29.6350,-93.6417,2.0,271.710231,10.05447661,-99999.0,'11111222,11111222,99999999' 
TABS,ioos:station:wmo:42051:1,2013-01-03T09:00:00Z,29.6350,-93.6417,2.0,258.2744945,13.5323686,-99999.0,'11111222,11111222,99999999' 
TABS,ioos:station:wmo:42051:1,2013-01-03T09:30:00Z,29.6350,-93.6417,2.0,268.1376828,12.92682482,-99999.0,'11111222,11111222,99999999' 
TABS,ioos:station:wmo:42051:1,2013-01-03T10:00:00Z,29.6350,-93.6417,2.0,272.4738571,13.90295292,-99999.0,'11111222,11111222,99999999' 
TABS,ioos:station:wmo:42051:1,2013-01-03T10:30:00Z,29.6350,-93.6417,2.0,278.5164458,11.54731571,-99999.0,'11111222,11111222,99999999' 
TABS,ioos:station:wmo:42051:1,2013-01-03T11:00:00Z,29.6350,-93.6417,2.0,281.0829645,12.84963034,-99999.0,'11111222,11111222,99999999' 
TABS,ioos:station:wmo:42051:1,2013-01-03T11:30:00Z,29.6350,-93.6417,2.0,256.4398285,19.8328238,-99999.0,'11111222,11111222,99999999' 
TABS,ioos:station:wmo:42051:1,2013-01-03T12:00:00Z,29.6350,-93.6417,2.0,260.7461957,18.0346888,-99999.0,'11111222,11111222,99999999' 
TABS,ioos:station:wmo:42051:1,2013-01-03T12:30:00Z,29.6350,-93.6417,2.0,261.7688837,13.69102261,-99999.0,'11111222,11111222,99999999' 
TABS,ioos:station:wmo:42051:1,2013-01-03T13:00:00Z,29.6350,-93.6417,2.0,260.1160406,15.20567328,-99999.0,'11111222,11111222,99999999' 
TABS,ioos:station:wmo:42051:1,2013-01-03T13:30:00Z,29.6350,-93.6417,2.0,271.5200182,8.673050213,-99999.0,'11133222,11111222,99999999' 
TABS,ioos:station:wmo:42051:1,2013-01-03T14:00:00Z,29.6350,-93.6417,2.0,244.0544153,9.508317412,-99999.0,'11133222,11111222,99999999' 
TABS,ioos:station:wmo:42051:1,2013-01-03T14:30:00Z,29.6350,-93.6417,2.0,243.9214474,11.578778,-99999.0,'11111222,11111222,99999999' 
TABS,ioos:station:wmo:42051:1,2013-01-03T15:00:00Z,29.6350,-93.6417,2.0,270.1114589,10.32001938,-99999.0,'11111222,11111222,99999999' 
TABS,ioos:station:wmo:42051:1,2013-01-03T15:30:00Z,29.6350,-93.6417,2.0,273.7395287,9.660564166,-99999.0,'11133222,11111222,99999999' 
TABS,ioos:station:wmo:42051:1,2013-01-03T16:00:00Z,29.6350,-93.6417,2.0,272.1465907,25.36779454,-99999.0,'11111222,11111222,99999999' 
TABS,ioos:station:wmo:42051:1,2013-01-03T16:30:00Z,29.6350,-93.6417,2.0,267.5490151,23.6216024,-99999.0,'11111222,11111222,99999999' 
TABS,ioos:station:wmo:42051:1,2013-01-03T17:00:00Z,29.6350,-93.6417,2.0,267.5692606,23.11078752,-99999.0,'11111222,11111222,99999999' 
TABS,ioos:station:wmo:42051:1,2013-01-03T17:30:00Z,29.6350,-93.6417,2.0,266.3817567,19.80947753,-99999.0,'11111222,11111222,99999999' 
TABS,ioos:station:wmo:42051:1,2013-01-03T18:00:00Z,29.6350,-93.6417,2.0,266.4273768,17.3336782,-99999.0,'11111222,11111222,99999999' 
TABS,ioos:station:wmo:42051:1,2013-01-03T18:30:00Z,29.6350,-93.6417,2.0,274.4841826,13.43110569,-99999.0,'11111222,11111222,99999999' 
TABS,ioos:station:wmo:42051:1,2013-01-03T19:00:00Z,29.6350,-93.6417,2.0,281.9868191,24.7496202,-99999.0,'11111222,11111222,99999999' 
TABS,ioos:station:wmo:42051:1,2013-01-03T19:30:00Z,29.6350,-93.6417,2.0,261.8044241,19.92345352,-99999.0,'11111222,11111222,99999999' 
TABS,ioos:station:wmo:42051:1,2013-01-03T20:00:00Z,29.6350,-93.6417,2.0,275.6376005,20.97142103,-99999.0,'11111222,11111222,99999999' 
TABS,ioos:station:wmo:42051:1,2013-01-03T20:30:00Z,29.6350,-93.6417,2.0,284.574603,15.49870962,-99999.0,'11111222,11111222,99999999' 
TABS,ioos:station:wmo:42051:1,2013-01-03T21:00:00Z,29.6350,-93.6417,2.0,271.6167308,14.53578343,-99999.0,'11111222,11111222,99999999' 
TABS,ioos:station:wmo:42051:1,2013-01-03T21:30:00Z,29.6350,-93.6417,2.0,266.8908165,21.0209348,-99999.0,'11111222,11111222,99999999' 
TABS,ioos:station:wmo:42051:1,2013-01-03T22:00:00Z,29.6350,-93.6417,2.0,291.3057256,12.44019694,-99999.0,'11111222,11111222,99999999' 
TABS,ioos:station:wmo:42051:1,2013-01-03T22:30:00Z,29.6350,-93.6417,2.0,282.242169,28.57986179,-99999.0,'11111222,11111222,99999999' 
TABS,ioos:station:wmo:42051:1,2013-01-03T23:00:00Z,29.6350,-93.6417,2.0,275.1218438,22.74078715,-99999.0,'11111222,11111222,99999999' 
TABS,ioos:station:wmo:42051:1,2013-01-03T23:30:00Z,29.6350,-93.6417,2.0,280.955446,18.36466716,-99999.0,'11111222,11111222,99999999' 
TABS,ioos:station:wmo:42051:1,2013-01-04T00:00:00Z,29.6350,-93.6417,2.0,273.6713035,18.89877509,-99999.0,'11111222,11111222,99999999' 
TABS,ioos:station:wmo:42051:1,2013-01-04T00:30:00Z,29.6350,-93.6417,2.0,260.3523677,20.88535611,-99999.0,'11111222,11111222,99999999' 
TABS,ioos:station:wmo:42051:1,2013-01-04T01:00:00Z,29.6350,-93.6417,2.0,277.2840217,21.05993827,-99999.0,'11111222,11111222,99999999' 
TABS,ioos:station:wmo:42051:1,2013-01-04T01:30:00Z,29.6350,-93.6417,2.0,265.5164508,22.9000655,-99999.0,'11111222,11111222,99999999' 
TABS,ioos:station:wmo:42051:1,2013-01-04T02:00:00Z,29.6350,-93.6417,2.0,254.4696179,20.8408925,-99999.0,'11111222,11111222,99999999' 
TABS,ioos:station:wmo:42051:1,2013-01-04T02:30:00Z,29.6350,-93.6417,2.0,250.8698319,20.07877735,-99999.0,'11111222,11111222,99999999' 
TABS,ioos:station:wmo:42051:1,2013-01-04T03:00:00Z,29.6350,-93.6417,2.0,263.8623375,16.83649607,-99999.0,'11111222,11111222,99999999' 
TABS,ioos:station:wmo:42051:1,2013-01-04T03:30:00Z,29.6350,-93.6417,2.0,242.2484776,14.47493351,-99999.0,'11111222,11111222,99999999' 
TABS,ioos:station:wmo:42051:1,2013-01-04T04:00:00Z,29.6350,-93.6417,2.0,241.1888527,15.52128861,-99999.0,'11111222,11111222,99999999' 
TABS,ioos:station:wmo:42051:1,2013-01-04T04:30:00Z,29.6350,-93.6417,2.0,250.1239664,20.5012024,-99999.0,'11111222,11111222,99999999' 
TABS,ioos:station:wmo:42051:1,2013-01-04T05:00:00Z,29.6350,-93.6417,2.0,242.6980619,16.35148006,-99999.0,'11111222,11111222,99999999' 
TABS,ioos:station:wmo:42051:1,2013-01-04T05:30:00Z,29.6350,-93.6417,2.0,247.9944525,20.36347957,-99999.0,'11111222,11111222,99999999' 
TABS,ioos:station:wmo:42051:1,2013-01-04T06:00:00Z,29.6350,-93.6417,2.0,256.7853688,16.22972889,-99999.0,'11111222,11111222,99999999' 
TABS,ioos:station:wmo:42051:1,2013-01-04T06:30:00Z,29.6350,-93.6417,2.0,267.0912085,11.8252315,-99999.0,'11111222,11111222,99999999' 
TABS,ioos:station:wmo:42051:1,2013-01-04T07:00:00Z,29.6350,-93.6417,2.0,271.8573383,13.88729275,-99999.0,'11111222,11111222,99999999' 
TABS,ioos:station:wmo:42051:1,2013-01-04T07:30:00Z,29.6350,-93.6417,2.0,254.9553624,16.6817565,-99999.0,'11111222,11111222,99999999' 
TABS,ioos:station:wmo:42051:1,2013-01-04T08:00:00Z,29.6350,-93.6417,2.0,295.2014856,12.77604008,-99999.0,'11111222,11111222,99999999' 
TABS,ioos:station:wmo:42051:1,2013-01-04T08:30:00Z,29.6350,-93.6417,2.0,249.3899343,20.0,-99999.0,'11111222,11111222,99999999' 
TABS,ioos:station:wmo:42051:1,2013-01-04T09:00:00Z,29.6350,-93.6417,2.0,256.0797571,21.49112608,-99999.0,'11111222,11111222,99999999' 
TABS,ioos:station:wmo:42051:1,2013-01-04T09:30:00Z,29.6350,-93.6417,2.0,267.3306562,24.69678927,-99999.0,'11111222,11111222,99999999' 
TABS,ioos:station:wmo:42051:1,2013-01-04T10:00:00Z,29.6350,-93.6417,2.0,274.2026699,21.69833404,-99999.0,'11111222,11111222,99999999' 
TABS,ioos:station:wmo:42051:1,2013-01-04T10:30:00Z,29.6350,-93.6417,2.0,259.0970626,22.89321515,-99999.0,'11111222,11111222,99999999' 
TABS,ioos:station:wmo:42051:1,2013-01-04T11:00:00Z,29.6350,-93.6417,2.0,266.3022548,18.60873182,-99999.0,'11111222,11111222,99999999' 
TABS,ioos:station:wmo:42051:1,2013-01-04T11:30:00Z,29.6350,-93.6417,2.0,256.8208045,26.5800301,-99999.0,'11111222,11111222,99999999' 
TABS,ioos:station:wmo:42051:1,2013-01-04T12:00:00Z,29.6350,-93.6417,2.0,262.6443896,25.9333916,-99999.0,'11111222,11111222,99999999' 
TABS,ioos:station:wmo:42051:1,2013-01-04T12:30:00Z,29.6350,-93.6417,2.0,262.9301119,25.5945795,-99999.0,'11111222,11111222,99999999' 
TABS,ioos:station:wmo:42051:1,2013-01-04T13:00:00Z,29.6350,-93.6417,2.0,266.3596635,24.72988678,-99999.0,'11111222,11111222,99999999' 
TABS,ioos:station:wmo:42051:1,2013-01-04T13:30:00Z,29.6350,-93.6417,2.0,260.1697097,26.65126826,-99999.0,'11111222,11111222,99999999' 
TABS,ioos:station:wmo:42051:1,2013-01-04T14:00:00Z,29.6350,-93.6417,2.0,249.1042646,24.30870215,-99999.0,'11111222,11111222,99999999' 
TABS,ioos:station:wmo:42051:1,2013-01-04T14:30:00Z,29.6350,-93.6417,2.0,251.0693343,27.43378392,-99999.0,'11111222,11111222,99999999' 
TABS,ioos:station:wmo:42051:1,2013-01-04T15:00:00Z,29.6350,-93.6417,2.0,261.4010193,27.15522233,-99999.0,'11111222,11111222,99999999' 
TABS,ioos:station:wmo:42051:1,2013-01-04T15:30:00Z,29.6350,-93.6417,2.0,258.2393913,28.94763548,-99999.0,'11111222,11111222,99999999' 
TABS,ioos:station:wmo:42051:1,2013-01-04T16:00:00Z,29.6350,-93.6417,2.0,260.4815091,23.64551755,-99999.0,'11111222,11111222,99999999' 